CAPE
508 191 46 10 2 3 0 0 0 0 0 0 0 0 0 0 0 0 0 0 0 0
32 7 8 1 1 3 0 0 0 0 0 0 0 0 0 0 0 0 0 0 0 0
5 7 4 5 1 0 0 0 0 0 0 0 0 0 0 0 0 0 0 0 0 0
5 2 2 4 2 0 0 0 0 0 0 0 0 0 0 0 0 0 0 0 0 0
2 1 2 0 0 0 0 0 0 0 0 0 0 0 0 0 0 0 0 0 0 0
2 1 0 0 1 0 0 0 0 0 0 0 0 0 0 0 0 0 0 0 0 0
1 1 1 1 0 1 0 0 0 0 0 0 0 0 0 0 0 0 0 0 0 0
1 2 1 5 0 0 0 0 0 0 0 0 0 0 0 0 0 0 0 0 0 0
1 3 4 1 3 3 2 0 0 0 0 0 0 0 0 0 0 0 0 0 0 0
1 1 2 1 0 0 2 0 0 0 0 0 0 0 0 0 0 0 0 0 0 0
3 0 0 0 1 0 0 0 0 0 0 0 0 0 0 0 0 0 0 0 0 0
3 2 1 2 0 0 0 0 0 0 0 0 0 0 0 0 0 0 0 0 0 0
4 10 1 0 0 0 0 0 0 0 0 0 0 0 0 0 0 0 0 0 0 0
9 9 2 0 0 0 0 0 0 0 0 0 0 0 0 0 0 0 0 0 0 0
CIN
-41 -113 -212 -126 0 0 0 0 0 0 0 0 0 0 0 0 0 0 0 0 0 0
-224 0 0 0 0 0 0 0 0 0 0 0 0 0 0 0 0 0 0 0 0 0
0 0 0 0 0 0 0 0 0 0 0 0 0 0 0 0 0 0 0 0 0 0
0 0 0 0 0 0 0 0 0 0 0 0 0 0 0 0 0 0 0 0 0 0
0 0 0 0 0 0 0 0 0 0 0 0 0 0 0 0 0 0 0 0 0 0
0 0 0 0 0 0 0 0 0 0 0 0 0 0 0 0 0 0 0 0 0 0
0 0 0 0 0 0 0 0 0 0 0 0 0 0 0 0 0 0 0 0 0 0
0 0 0 0 0 0 0 0 0 0 0 0 0 0 0 0 0 0 0 0 0 0
0 0 0 0 0 0 0 0 0 0 0 0 0 0 0 0 0 0 0 0 0 0
0 0 0 0 0 0 0 0 0 0 0 0 0 0 0 0 0 0 0 0 0 0
0 0 0 0 0 0 0 0 0 0 0 0 0 0 0 0 0 0 0 0 0 0
0 0 0 0 0 0 0 0 0 0 0 0 0 0 0 0 0 0 0 0 0 0
0 0 0 0 0 0 0 0 0 0 0 0 0 0 0 0 0 0 0 0 0 0
0 0 0 0 0 0 0 0 0 0 0 0 0 0 0 0 0 0 0 0 0 0
Wind_Speed
15 8 9 10 9 7 8 8 9 7 7 8 8 7 6 5 5 6 6 6 4 3
10 12 9 9 9 7 7 8 8 9 8 9 9 9 8 6 7 8 7 7 6 5
12 11 10 9 11 10 8 9 11 10 9 10 9 9 9 8 9 9 8 7 9 7
11 10 10 8 10 9 10 8 12 11 10 11 10 10 9 9 11 11 9 10 9 9
11 12 11 10 11 11 10 9 12 12 12 11 11 10 10 11 11 12 11 10 10 10
12 13 13 13 13 13 12 10 11 13 12 12 12 11 11 10 11 11 11 10 10 9
10 11 13 12 15 12 12 12 12 12 12 12 13 12 11 11 10 10 10 9 9 8
9 10 11 15 13 19 11 10 13 13 12 14 13 11 14 14 12 11 11 9 9 8
8 9 10 11 12 14 12 16 14 14 15 14 11 15 12 14 13 13 12 11 10 10
8 8 9 10 12 13 14 14 15 14 14 14 12 13 11 11 13 13 12 12 11 10
7 7 8 9 10 11 11 15 15 14 14 14 11 15 12 8 11 10 11 11 11 10
8 9 9 11 11 11 10 12 12 12 13 15 14 19 18 16 13 11 12 10 10 10
6 10 10 11 11 10 9 10 11 14 15 13 15 21 22 18 10 12 10 11 11 3
5 8 10 9 7 10 12 9 10 11 10 14 14 18 24 21 13 11 11 10 10 10
Wind_Direction
202 195 203 192 165 169 174 180 155 164 161 150 149 144 153 158 169 163 163 170 171 150
182 179 177 157 158 164 156 142 152 165 159 153 150 148 149 148 149 145 142 134 139 132
178 174 171 157 158 163 146 151 158 167 162 156 150 150 149 147 145 142 142 138 139 132
160 151 153 164 158 154 144 159 166 163 167 161 153 157 159 153 148 144 142 139 140 132
154 150 157 162 159 154 154 164 173 162 168 161 160 162 163 161 153 149 148 142 141 135
160 160 166 161 161 157 158 169 170 172 165 162 162 167 170 156 160 153 148 150 145 143
174 171 171 172 158 162 163 163 178 174 164 163 166 168 167 161 157 151 147 145 141 147
182 176 169 173 171 149 165 187 178 167 169 169 172 171 169 163 160 153 147 148 146 147
168 174 177 168 172 170 178 170 177 173 172 174 182 151 162 164 160 162 159 160 156 135
177 169 174 169 169 171 174 165 178 181 184 181 182 147 163 172 165 167 165 165 159 157
188 178 165 168 178 174 180 179 182 183 186 181 163 154 160 183 168 166 166 168 167 166
187 183 174 177 178 185 182 177 184 183 185 182 157 161 169 178 174 169 169 169 176 176
198 196 186 181 183 187 191 179 179 189 191 183 171 173 174 191 182 174 170 170 171 235
233 199 194 182 177 182 191 183 181 182 182 187 191 182 181 192 183 181 181 177 177 179